This demonstration page uses our WeatherBlox Daily Observations layout. Learn more.

Left ArrowRight Arrow

Hourly Observations for May 31, 2019

Temp ( °F °C ) Dew Point ( °F °C ) Humidity (%) Winds ( mph kmh ) Pressure ( in mb ) Visibility ( mi km ) Precip ( " mm )
12:52 am 00:52 Mostly Clear 61 16.1 59 15 93 93 Calm 29.90 1013 10 16 0.00 0.00
1:52 am 01:52 Clear 60 15.6 58 14.4 93 93 SSE 3 6 29.90 1013 10 16 0.00 0.00
2:52 am 02:52 Clear 60 15.6 59 15 96 96 SE 3 6 29.90 1012 10 16 0.00 0.00
3:52 am 03:52 Clear 59 15 58 14.4 96 96 Calm 29.91 1013 10 16 0.00 0.00
4:52 am 04:52 Clear 58 14.4 57 13.9 97 97 SE 6 9 29.92 1013 9 14 0.00 0.00
5:52 am 05:52 Clear 58 14.4 57 13.9 97 97 SSE 6 9 29.93 1014 7 11 0.00 0.00
6:52 am 06:52 Sunny 59 15 57 13.9 93 93 ESE 5 7 29.95 1014 9 14 0.00 0.00
7:52 am 07:52 Sunny 61 16.1 58 14.4 90 90 SE 6 9 29.95 1014 8 13 0.00 0.00
8:52 am 08:52 Partly Cloudy 65 18.3 59 15 81 81 SSE 5 7 29.95 1014 8 13 0.00 0.00
9:52 am 09:52 Partly Cloudy 70 21.1 60 15.6 71 71 SSE 6 9 29.94 1014 8 13 0.00 0.00
10:52 am 10:52 Mostly Sunny 75 23.9 61 16.1 62 62 S 3 6 29.93 1014 8 13 0.00 0.00
11:52 am 11:52 Partly Cloudy 80 26.7 61 16.1 52 52 VRB 6 9 29.94 1014 8 13 0.00 0.00
12:52 pm 12:52 Mostly Cloudy 82 27.8 59 15 46 46 WSW 9 15 29.93 1014 8 13 0.00 0.00
1:52 pm 13:52 Mostly Cloudy 82 27.8 56 13.3 41 41 W 9 15 29.92 1013 8 13 0.00 0.00
2:52 pm 14:52 Cloudy 83 28.3 56 13.3 40 40 WSW 9 15 29.91 1013 8 13 0.00 0.00
3:52 pm 15:52 Cloudy 83 28.3 55 12.8 38 38 SW 10 17 29.89 1012 8 13 0.00 0.00
4:52 pm 16:52 Cloudy 84 28.9 53 11.7 34 34 SSW 8 13 29.87 1012 8 13 0.00 0.00
5:52 pm 17:52 Cloudy 84 28.9 55 12.8 37 37 SW 12 19 29.86 1011 8 13 0.00 0.00
6:52 pm 18:52 Cloudy 82 27.8 56 13.3 41 41 SSW 7 11 29.85 1011 10 16 0.00 0.00
7:52 pm 19:52 Cloudy 81 27.2 58 14.4 45 45 SSW 7 11 29.85 1011 7 11 0.00 0.00
8:52 pm 20:52 Partly Cloudy 74 23.3 59 15 60 60 SSE 6 9 29.85 1011 7 11 0.00 0.00
9:52 pm 21:52 Mostly Clear 71 21.7 61 16.1 71 71 SSE 7 11 29.85 1011 9 14 0.00 0.00
10:52 pm 22:52 Mostly Clear 69 20.6 61 16.1 76 76 S 6 9 29.86 1011 9 14 0.00 0.00
11:52 pm 23:52 Cloudy 68 20 62 16.7 81 81 SSE 8 13 29.85 1011 8 13 0.00 0.00

Powered by AerisWeather